DW2715 Weather Reports


Display with metric or nautical units.
time (UTC)temp
F
wind
direction
speed
MPH
gust
MPH
rain 1hr
in
rain 24hr
in
rain mn
in
humidity
%
barometer
mb
20260508083153 65 128 0.0 7.0 0.00 0.00 0.00 75 1016.5
20260508082647 65 86 0.0 6.0 0.00 0.00 0.00 74 1016.5
20260508082143 65 94 1.0 7.0 0.00 0.00 0.00 75 1016.5
20260508081130 65 90 0.0 6.0 0.00 0.00 0.00 76 1016.5
20260508080624 65 65 0.0 6.0 0.00 0.00 0.00 76 1016.5
20260508080118 65 103 1.0 7.0 0.00 0.00 0.00 77 1016.4
20260508075112 64 22 1.0 6.0 0.00 0.00 0.00 78 1016.4
20260508074610 64 80 2.0 8.0 0.00 0.00 0.00 79 1016.4
20260508074108 64 62 3.0 8.0 0.00 0.00 0.00 78 1016.4
20260508073607 64 133 3.0 7.0 0.00 0.00 0.00 80 1016.3
20260508073108 64 67 2.0 7.0 0.00 0.00 0.00 80 1016.3
20260508072606 63 132 2.0 7.0 0.00 0.00 0.00 82 1016.3
20260508072105 63 132 3.0 8.0 0.00 0.00 0.00 82 1016.3
20260508071605 62 83 3.0 8.0 0.00 0.00 0.00 83 1016.3
20260508071105 62 138 3.0 8.0 0.00 0.00 0.00 83 1016.3
20260508070603 62 88 4.0 8.0 0.00 0.00 0.00 83 1016.3
20260508065603 62 78 2.0 10.0 0.00 0.00 0.00 85 1016.3
20260508065102 61 74 2.0 6.0 0.00 0.00 0.00 86 1016.3
20260508064604 60 33 3.0 9.0 0.00 0.00 0.00 86 1016.3
20260508063603 60 90 3.0 8.0 0.00 0.00 0.00 86 1016.2
20260508063103 60 82 3.0 8.0 0.00 0.00 0.00 86 1016.2
20260508062101 59 82 3.0 6.0 0.00 0.00 0.00 87 1016.1
20260508061555 59 84 3.0 6.0 0.00 0.00 0.00 87 1016.0
20260508061049 58 117 3.0 7.0 0.00 0.00 0.00 87 1016.0
20260508060544 58 90 2.0 7.0 0.00 0.00 0.00 87 1015.9
20260508055536 58 14 2.0 4.0 0.00 0.00 0.00 87 1015.9
20260508055036 58 21 1.0 4.0 0.00 0.00 0.00 87 1015.8
20260508054534 57 71 1.0 4.0 0.00 0.00 0.00 87 1015.9
20260508054032 57 46 2.0 4.0 0.00 0.00 0.00 87 1015.8
20260508053532 57 74 2.0 6.0 0.00 0.00 0.00 87 1015.8
20260508052532 57 58 2.0 4.0 0.00 0.00 0.00 88 1015.7
20260508051531 56 33 2.0 5.0 0.00 0.00 0.00 88 1015.7
20260508050529 55 12 2.0 6.0 0.00 0.00 0.00 88 1015.6
20260508050029 55 11 2.0 6.0 0.00 0.00 0.00 88 1015.6
20260508045529 55 15 1.0 5.0 0.00 0.00 0.00 88 1015.6
20260508044526 55 5 2.0 4.0 0.00 0.00 0.00 88 1015.5
20260508044025 54 39 1.0 4.0 0.00 0.00 0.00 88 1015.4
20260508043526 54 9 2.0 3.0 0.00 0.00 0.00 88 1015.4
20260508043023 54 5 2.0 4.0 0.00 0.00 0.00 88 1015.3
20260508042523 54 0 1.0 4.0 0.00 0.00 0.00 88 1015.3
20260508042023 54 28 0.0 2.0 0.00 0.00 0.00 88 1015.3
20260508041522 54 29 0.0 3.0 0.00 0.00 0.00 88 1015.3
20260508041021 54 30 1.0 5.0 0.00 0.00 0.00 88 1015.2
20260508040522 54 5 2.0 5.0 0.00 0.00 0.00 88 1015.2
20260508035522 54 22 3.0 8.0 0.00 0.00 0.00 88 1015.1
20260508035022 53 9 3.0 8.0 0.00 0.00 0.00 88 1015.2
20260508034521 53 33 3.0 6.0 0.00 0.00 0.00 88 1015.1
20260508033520 54 35 3.0 8.0 0.00 0.00 0.00 88 1015.1
20260508033021 54 27 3.0 7.0 0.00 0.00 0.00 88 1015.1
20260508032521 54 30 3.0 7.0 0.00 0.00 0.00 88 1015.2
20260508032015 54 38 3.0 7.0 0.00 0.00 0.00 88 1015.3
20260508031517 54 30 2.0 5.0 0.00 0.00 0.00 88 1015.2
20260508031011 54 34 2.0 6.0 0.00 0.00 0.00 88 1015.2
20260508030511 54 355 3.0 6.0 0.00 0.00 0.00 88 1015.2
20260508025511 55 57 3.0 7.0 0.00 0.00 0.00 88 1015.3
20260508025012 55 26 3.0 7.0 0.00 0.00 0.00 88 1015.3
20260508024511 55 20 2.0 5.0 0.00 0.00 0.00 89 1015.3
20260508024011 55 26 1.0 3.0 0.00 0.00 0.00 89 1015.3
20260508023511 55 55 0.0 3.0 0.00 0.00 0.00 89 1015.3
20260508023011 55 27 0.0 3.0 0.00 0.00 0.00 89 1015.4
20260508022511 56 24 1.0 5.0 0.00 0.00 0.00 89 1015.4
20260508022011 56 13 2.0 5.0 0.00 0.00 0.00 89 1015.4
20260508021012 56 16 1.0 4.0 0.00 0.00 0.00 88 1015.3
20260508020510 56 26 2.0 5.0 0.00 0.00 0.00 89 1015.4
20260508020011 56 13 2.0 5.0 0.00 0.00 0.00 89 1015.4
20260508015512 56 42 2.0 5.0 0.00 0.00 0.00 88 1015.4
20260508015010 56 65 2.0 5.0 0.00 0.00 0.00 88 1015.4
20260508014007 57 30 3.0 6.0 0.00 0.00 0.00 88 1015.4
20260508013506 57 80 2.0 6.0 0.00 0.00 0.00 88 1015.4
20260508013007 57 18 0.0 3.0 0.00 0.00 0.00 88 1015.4
20260508012504 58 18 0.0 4.0 0.00 0.00 0.00 88 1015.4
20260508011503 58 38 0.0 4.0 0.00 0.00 0.00 88 1015.4
20260508011002 58 45 0.0 5.0 0.00 0.00 0.00 88 1015.4
20260508010503 58 46 0.0 8.0 0.00 0.00 0.00 87 1015.4
20260508005500 58 14 0.0 4.0 0.00 0.00 0.00 87 1015.5
20260508005000 58 92 0.0 4.0 0.00 0.00 0.00 87 1015.4
20260508004501 58 63 0.0 4.0 0.00 0.00 0.00 87 1015.4
20260508003501 58 86 2.0 8.0 0.00 0.00 0.00 86 1015.4
20260508002958 58 138 1.0 8.0 0.00 0.00 0.00 86 1015.4
20260508001955 58 28 1.0 5.0 0.00 0.00 0.00 86 1015.4
20260508001450 58 17 2.0 5.0 0.00 0.00 0.00 86 1015.5
20260508000949 58 88 1.0 0.0 0.00 0.00 0.00 86 1015.5
20260508000530 58 30 0.0 0.0 0.00 0.00 0.00 85 1015.4
20260508000030 58 68 0.0 1.0 0.00 0.00 0.00 85 1015.5
20260507235530 58 20 1.0 5.0 0.00 0.00 0.00 85 1015.5
20260507235032 58 18 1.0 5.0 0.00 0.00 0.00 85 1015.6
20260507234031 58 28 3.0 8.0 0.00 0.00 0.00 84 1015.6
20260507233533 58 65 4.0 8.0 0.00 0.00 0.00 84 1015.6
20260507233031 58 22 4.0 7.0 0.00 0.00 0.00 84 1015.6
20260507232530 58 29 4.0 8.0 0.00 0.00 0.00 84 1015.7
20260507232031 58 0 4.0 8.0 0.00 0.00 0.00 84 1015.7
20260507231530 58 34 3.0 6.0 0.00 0.00 0.00 84 1015.6
20260507230531 58 5 2.0 6.0 0.00 0.00 0.00 84 1015.5
20260507230032 58 29 1.0 4.0 0.00 0.00 0.00 84 1015.4
20260507225532 58 54 1.0 4.0 0.00 0.00 0.00 84 1015.4
20260507225026 58 40 0.0 4.0 0.00 0.00 0.00 84 1015.5
20260507224526 58 87 0.0 0.0 0.00 0.00 0.00 84 1015.5
20260507224021 58 46 0.0 0.0 0.00 0.00 0.00 84 1015.5
20260507223514 58 38 0.0 0.0 0.00 0.00 0.00 84 1015.6
20260507222511 58 32 0.0 0.0 0.00 0.00 0.00 83 1015.5
20260507221507 59 36 0.0 0.0 0.00 0.00 0.00 83 1015.4
20260507221006 59 36 0.0 0.0 0.00 0.00 0.00 82 1015.4
20260507220507 59 33 0.0 0.0 0.00 0.00 0.00 82 1015.3
20260507220005 59 61 0.0 0.0 0.00 0.00 0.00 82 1015.3
20260507215003 59 65 0.0 0.0 0.00 0.00 0.00 81 1015.4
20260507214503 59 98 0.0 1.0 0.00 0.00 0.00 81 1015.4
20260507214002 59 98 0.0 1.0 0.00 0.00 0.00 80 1015.2
20260507213003 60 33 1.0 4.0 0.00 0.00 0.00 79 1015.1
20260507212003 60 36 2.0 5.0 0.00 0.00 0.00 79 1015.2
20260507211503 60 53 2.0 6.0 0.00 0.00 0.00 79 1015.2
20260507211002 60 67 1.0 6.0 0.00 0.00 0.00 78 1015.2
20260507210502 60 50 0.0 0.0 0.00 0.00 0.00 78 1015.3
20260507210002 60 40 0.0 0.0 0.00 0.00 0.00 78 1015.3
20260507204949 60 17 2.0 5.0 0.00 0.00 0.00 78 1015.2
20260507204444 60 15 3.0 5.0 0.00 0.00 0.00 77 1015.1
20260507203938 60 9 2.0 5.0 0.00 0.00 0.00 76 1015.0
20260507203433 61 28 0.0 5.0 0.00 0.00 0.00 75 1015.1
20260507202931 61 171 0.0 0.0 0.00 0.00 0.00 75 1014.9
20260507202431 61 171 0.0 0.0 0.00 0.00 0.00 74 1014.8
20260507201931 61 171 0.0 0.0 0.00 0.00 0.00 74 1014.7
20260507201432 61 186 0.0 0.0 0.00 0.00 0.00 73 1014.7
20260507200930 62 161 0.0 0.0 0.00 0.00 0.00 73 1014.6
20260507200432 62 175 0.0 0.0 0.00 0.00 0.00 73 1014.6
20260507195931 62 157 0.0 0.0 0.00 0.00 0.00 72 1014.6
20260507195430 62 163 0.0 5.0 0.00 0.00 0.00 72 1014.5
20260507194930 62 155 0.0 5.0 0.00 0.00 0.00 72 1014.5
20260507194432 63 144 0.0 4.0 0.00 0.00 0.00 72 1014.6
20260507193931 63 121 1.0 7.0 0.00 0.00 0.00 72 1014.5
20260507193431 63 175 1.0 7.0 0.00 0.00 0.00 72 1014.4
20260507192930 63 134 0.0 0.0 0.00 0.00 0.00 71 1014.3
20260507191930 64 156 2.0 6.0 0.00 0.00 0.00 71 1014.2
20260507191431 64 113 1.0 5.0 0.00 0.00 0.00 69 1014.0
20260507190927 64 148 1.0 6.0 0.00 0.00 0.00 69 1014.0
20260507185914 65 163 2.0 6.0 0.00 0.00 0.00 70 1013.7
20260507185410 65 142 2.0 7.0 0.00 0.00 0.00 70 1013.7
20260507184904 65 119 1.0 7.0 0.00 0.00 0.00 70 1013.6
20260507184403 65 178 1.0 7.0 0.00 0.00 0.00 69 1013.6
20260507183904 66 160 2.0 7.0 0.00 0.00 0.00 69 1013.5
20260507183403 66 119 2.0 7.0 0.00 0.00 0.00 67 1013.4
20260507182903 66 154 1.0 5.0 0.00 0.00 0.00 67 1013.3
20260507182404 66 142 0.0 5.0 0.00 0.00 0.00 66 1013.3
20260507181903 66 160 1.0 8.0 0.00 0.00 0.00 66 1013.2
20260507180903 67 137 1.0 6.0 0.00 0.00 0.00 69 1013.1
20260507180402 67 115 1.0 7.0 0.00 0.00 0.00 71 1013.0
20260507175903 67 115 2.0 7.0 0.00 0.00 0.00 70 1012.9
20260507175402 67 82 1.0 7.0 0.00 0.00 0.00 69 1012.8
20260507174903 67 88 0.0 3.0 0.00 0.00 0.00 68 1012.7
20260507173902 68 119 2.0 9.0 0.00 0.00 0.00 67 1012.5
20260507173359 68 89 2.0 9.0 0.00 0.00 0.00 64 1012.4
20260507172901 69 81 0.0 7.0 0.00 0.00 0.00 61 1012.4
20260507172359 69 134 0.0 0.0 0.00 0.00 0.00 61 1012.3
20260507171859 69 109 0.0 0.0 0.00 0.00 0.00 61 1012.4
20260507170859 69 87 0.0 1.0 0.00 0.00 0.00 59 1012.2
20260507165859 69 32 1.0 5.0 0.00 0.00 0.00 58 1012.2
20260507165401 69 5 0.0 5.0 0.00 0.00 0.00 57 1012.2
20260507164900 69 32 0.0 2.0 0.00 0.00 0.00 57 1012.2
20260507164358 69 38 0.0 3.0 0.00 0.00 0.00 57 1012.2
20260507162859 71 296 0.0 0.0 0.00 0.00 0.00 48 1012.2
20260507162359 71 250 0.0 0.0 0.00 0.00 0.00 49 1012.3
20260507161859 71 237 1.0 7.0 0.00 0.00 0.00 48 1012.2
20260507161358 71 210 1.0 12.0 0.00 0.00 0.00 47 1012.1
20260507160856 72 227 2.0 12.0 0.00 0.00 0.00 47 1012.1
20260507160350 72 197 0.0 9.0 0.00 0.00 0.00 47 1012.1
20260507155845 72 234 1.0 7.0 0.00 0.00 0.00 47 1012.1
20260507154832 73 240 2.0 8.0 0.00 0.00 0.00 44 1012.2
20260507154331 73 211 2.0 8.0 0.00 0.00 0.00 45 1012.1
20260507153831 73 223 2.0 11.0 0.00 0.00 0.00 46 1012.0
20260507153330 73 200 2.0 11.0 0.00 0.00 0.00 46 1012.0
20260507152834 73 205 2.0 7.0 0.00 0.00 0.00 46 1012.0
20260507152330 72 225 2.0 8.0 0.00 0.00 0.00 46 1012.0
20260507151831 72 215 3.0 11.0 0.00 0.00 0.00 46 1012.0
20260507151331 73 242 4.0 12.0 0.00 0.00 0.00 46 1011.9
20260507145831 74 189 2.0 14.0 0.00 0.00 0.00 45 1011.9
20260507145331 74 218 5.0 14.0 0.00 0.00 0.00 44 1012.0
20260507144330 75 215 2.0 14.0 0.00 0.00 0.00 43 1012.0
20260507143832 75 204 1.0 10.0 0.00 0.00 0.00 45 1012.0
20260507143330 74 225 2.0 10.0 0.00 0.00 0.00 45 1012.0
20260507142830 74 252 4.0 13.0 0.00 0.00 0.00 46 1012.1
20260507142328 74 194 3.0 13.0 0.00 0.00 0.00 46 1012.1
20260507141320 73 175 0.0 0.0 0.00 0.00 0.00 46 1012.2
20260507140820 73 236 0.0 1.0 0.00 0.00 0.00 44 1012.2
20260507140421 74 237 3.0 12.0 0.00 0.00 0.00 44 1012.2
20260507135419 73 190 0.0 3.0 0.00 0.00 0.00 47 1012.2
20260507134918 72 284 0.0 0.0 0.00 0.00 0.00 45 1012.2
20260507133915 74 229 2.0 11.0 0.00 0.00 0.00 44 1012.4
20260507132912 74 274 1.0 9.0 0.00 0.00 0.00 45 1012.3
20260507132411 74 215 2.0 10.0 0.00 0.00 0.00 45 1012.4
20260507131911 74 231 2.0 11.0 0.00 0.00 0.00 45 1012.4
20260507131411 74 219 1.0 11.0 0.00 0.00 0.00 46 1012.4
20260507130910 74 217 2.0 11.0 0.00 0.01 0.00 46 1012.4
20260507130409 74 206 4.0 11.0 0.00 0.02 0.00 45 1012.4
20260507125908 74 163 3.0 8.0 0.00 0.06 0.00 47 1012.4
20260507124907 72 223 2.0 11.0 0.00 0.15 0.00 50 1012.4
20260507124407 71 246 2.0 10.0 0.00 0.17 0.00 51 1012.5
20260507123403 71 235 0.0 5.0 0.00 0.18 0.00 50 1012.5
20260507122857 73 248 1.0 7.0 0.00 0.18 0.00 48 1012.4
20260507121844 73 223 3.0 11.0 0.00 0.18 0.00 50 1012.5
20260507121342 73 186 4.0 14.0 0.00 0.18 0.00 51 1012.5
20260507120838 73 185 4.0 14.0 0.00 0.18 0.00 50 1012.6
20260507115604 72 259 2.0 11.0 0.00 0.18 0.00 54 1012.6
20260507115103 72 272 2.0 12.0 0.00 0.18 0.00 54 1012.6
20260507114603 71 229 2.0 12.0 0.00 0.18 0.00 53 1012.7
20260507113103 71 259 2.0 9.0 0.00 0.18 0.00 54 1012.7
20260507112103 71 169 2.0 9.0 0.00 0.18 0.00 55 1012.9
20260507111603 71 239 1.0 9.0 0.00 0.18 0.00 53 1012.9
20260507111103 71 215 2.0 11.0 0.00 0.18 0.00 54 1013.0
20260507110602 71 207 3.0 12.0 0.00 0.18 0.00 54 1013.0
20260507110103 71 207 4.0 12.0 0.00 0.18 0.00 55 1013.0
20260507105609 71 205 3.0 12.0 0.00 0.18 0.00 58 1013.1
20260507105103 70 236 4.0 11.0 0.00 0.18 0.00 58 1013.2
20260507104604 69 185 6.0 12.0 0.00 0.18 0.00 60 1013.1
20260507104103 70 237 4.0 12.0 0.00 0.18 0.00 61 1013.3
20260507103602 69 182 2.0 10.0 0.00 0.18 0.00 61 1013.3
20260507103103 68 186 2.0 10.0 0.00 0.18 0.00 61 1013.4
20260507102602 68 213 1.0 10.0 0.00 0.18 0.00 59 1013.4
20260507102105 68 257 2.0 10.0 0.00 0.18 0.00 58 1013.4
20260507101602 69 240 2.0 9.0 0.00 0.18 0.00 56 1013.5
20260507101102 69 240 2.0 9.0 0.00 0.18 0.00 58 1013.5
20260507100603 69 188 2.0 12.0 0.00 0.18 0.00 60 1013.5
20260507095603 67 216 1.0 7.0 0.00 0.18 0.00 64 1013.5
20260507094603 67 227 1.0 8.0 0.00 0.18 0.00 67 1013.5
20260507094102 67 175 1.0 8.0 0.00 0.18 0.00 70 1013.5
20260507093603 66 148 0.0 2.0 0.00 0.18 0.00 71 1013.5
20260507093102 67 297 0.0 6.0 0.00 0.18 0.00 70 1013.6
20260507092558 66 178 1.0 6.0 0.00 0.19 0.00 72 1013.5
20260507092059 66 204 1.0 7.0 0.00 0.19 0.00 73 1013.5
20260507090558 65 200 1.0 6.0 0.00 0.20 0.00 73 1013.5
20260507090059 65 213 1.0 6.0 0.00 0.20 0.00 72 1013.5
20260507085557 65 222 1.0 7.0 0.00 0.20 0.00 70 1013.5
20260507085058 65 217 1.0 7.0 0.00 0.20 0.00 70 1013.5
20260507084558 65 203 0.0 4.0 0.00 0.20 0.00 72 1013.4
20260507084059 65 304 0.0 2.0 0.00 0.20 0.00 71 1013.3
20260507083600 65 290 0.0 3.0 0.00 0.20 0.00 70 1013.4